• In Deutschland
  • Länderverzeichnis
  • Für 7 Tage
  • Wassertemperatur
  • Satellitenkarten
  • Wetterkarte
  • Widgets
  • user-avatar
    Anmelden

    Stündliche Wetter Saidpur

    Heute, 20 November, Montag

    Zeit Temperatur Niederschläge Wind Luftdruck Luftfeuchtigkeit
    00:00 +25°C° 0 mm 1 m/S 756 mmHg 67%
    01:00 +25°C° 0 mm 1 m/S 756 mmHg 68%
    02:00 +24°C° 0 mm 1 m/S 755 mmHg 69%
    03:00 +24°C° 0 mm 1 m/S 755 mmHg 70%
    04:00 +24°C° 0 mm 1 m/S 755 mmHg 72%
    05:00 +21°C° 0 mm 0 m/S 756 mmHg 73%
    06:00 +21°C° 0 mm 0 m/S 756 mmHg 74%
    07:00 +24°C° 0 mm 1 m/S 756 mmHg 70%
    08:00 +26°C° 0 mm 1 m/S 757 mmHg 65%
    09:00 +27°C° 0 mm 1 m/S 757 mmHg 61%
    10:00 +28°C° 0 mm 1 m/S 757 mmHg 55%
    11:00 +30°C° 0 mm 2 m/S 757 mmHg 49%
    12:00 +31°C° 0 mm 2 m/S 757 mmHg 43%
    13:00 +31°C° 0 mm 3 m/S 756 mmHg 41%
    14:00 +31°C° 0 mm 3 m/S 755 mmHg 39%
    15:00 +33°C° 0 mm 3 m/S 754 mmHg 37%
    16:00 +30°C° 0 mm 3 m/S 754 mmHg 41%
    17:00 +28°C° 0 mm 2 m/S 754 mmHg 45%
    18:00 +27°C° 0 mm 2 m/S 754 mmHg 49%
    19:00 +26°C° 0 mm 1 m/S 754 mmHg 50%
    20:00 +25°C° 0 mm 1 m/S 755 mmHg 51%
    21:00 +25°C° 0 mm 1 m/S 755 mmHg 52%
    22:00 +24°C° 0 mm 1 m/S 755 mmHg 54%
    23:00 +24°C° 0 mm 1 m/S 755 mmHg 56%

    Morgen, 21 November, Dienstag

    Zeit Temperatur Niederschläge Wind Luftdruck Luftfeuchtigkeit
    00:00 +23°C° 0 mm 1 m/S 755 mmHg 58%
    01:00 +23°C° 0 mm 1 m/S 755 mmHg 60%
    02:00 +22°C° 0 mm 1 m/S 755 mmHg 62%
    03:00 +22°C° 0 mm 1 m/S 755 mmHg 64%
    04:00 +20°C° 0 mm 2 m/S 755 mmHg 65%
    05:00 +20°C° 0 mm 2 m/S 756 mmHg 67%
    06:00 +19°C° 0 mm 2 m/S 756 mmHg 69%
    07:00 +21°C° 0 mm 2 m/S 757 mmHg 66%
    08:00 +23°C° 0 mm 2 m/S 757 mmHg 64%
    09:00 +24°C° 0 mm 2 m/S 758 mmHg 62%
    10:00 +26°C° 0 mm 3 m/S 758 mmHg 54%
    11:00 +28°C° 0 mm 3 m/S 757 mmHg 46%
    12:00 +29°C° 0 mm 3 m/S 757 mmHg 38%
    13:00 +29°C° 0 mm 3 m/S 756 mmHg 36%
    14:00 +29°C° 0 mm 3 m/S 755 mmHg 34%
    15:00 +29°C° 0 mm 4 m/S 755 mmHg 31%
    16:00 +27°C° 0 mm 3 m/S 755 mmHg 34%
    17:00 +25°C° 0 mm 3 m/S 755 mmHg 37%
    18:00 +24°C° 0 mm 3 m/S 755 mmHg 40%
    19:00 +22°C° 0 mm 3 m/S 755 mmHg 40%
    20:00 +21°C° 0 mm 2 m/S 756 mmHg 40%
    21:00 +21°C° 0 mm 2 m/S 756 mmHg 40%
    22:00 +20°C° 0 mm 2 m/S 756 mmHg 41%
    23:00 +20°C° 0 mm 2 m/S 756 mmHg 41%

    übermorgen, 22 November, Mittwoch

    Zeit Temperatur Niederschläge Wind Luftdruck Luftfeuchtigkeit
    00:00 +19°C° 0 mm 2 m/S 756 mmHg 42%
    01:00 +19°C° 0 mm 2 m/S 756 mmHg 43%
    02:00 +19°C° 0 mm 2 m/S 756 mmHg 44%
    03:00 +18°C° 0 mm 2 m/S 755 mmHg 46%
    04:00 +18°C° 0 mm 2 m/S 755 mmHg 48%
    05:00 +18°C° 0 mm 2 m/S 755 mmHg 50%
    06:00 +17°C° 0 mm 2 m/S 756 mmHg 53%
    07:00 +19°C° 0 mm 2 m/S 756 mmHg 52%
    08:00 +20°C° 0 mm 2 m/S 757 mmHg 52%
    09:00 +23°C° 0 mm 2 m/S 758 mmHg 52%
    10:00 +24°C° 0 mm 2 m/S 757 mmHg 49%
    11:00 +26°C° 0 mm 2 m/S 757 mmHg 47%
    12:00 +28°C° 0 mm 2 m/S 756 mmHg 44%
    13:00 +28°C° 0 mm 2 m/S 756 mmHg 43%
    14:00 +28°C° 0 mm 2 m/S 755 mmHg 43%
    15:00 +28°C° 0 mm 2 m/S 754 mmHg 42%
    16:00 +27°C° 0 mm 2 m/S 754 mmHg 45%
    17:00 +25°C° 0 mm 2 m/S 754 mmHg 48%
    18:00 +24°C° 0 mm 2 m/S 754 mmHg 51%
    19:00 +23°C° 0 mm 2 m/S 755 mmHg 50%
    20:00 +21°C° 0 mm 2 m/S 755 mmHg 49%
    21:00 +21°C° 0 mm 2 m/S 756 mmHg 48%
    22:00 +20°C° 0 mm 2 m/S 756 mmHg 47%
    23:00 +20°C° 0 mm 2 m/S 756 mmHg 47%

    23 November, Donnerstag

    Zeit Temperatur Niederschläge Wind Luftdruck Luftfeuchtigkeit
    00:00 +19°C° 0 mm 2 m/S 756 mmHg 47%
    01:00 +19°C° 0 mm 2 m/S 756 mmHg 49%
    02:00 +19°C° 0 mm 2 m/S 755 mmHg 50%
    03:00 +18°C° 0 mm 2 m/S 755 mmHg 52%
    04:00 +18°C° 0 mm 2 m/S 755 mmHg 54%
    05:00 +18°C° 0 mm 2 m/S 756 mmHg 56%
    06:00 +17°C° 0 mm 2 m/S 756 mmHg 59%
    07:00 +19°C° 0 mm 2 m/S 756 mmHg 58%
    08:00 +20°C° 0 mm 2 m/S 757 mmHg 57%
    09:00 +23°C° 0 mm 2 m/S 758 mmHg 56%
    10:00 +24°C° 0 mm 2 m/S 757 mmHg 52%
    11:00 +26°C° 0 mm 2 m/S 757 mmHg 49%
    12:00 +27°C° 0 mm 2 m/S 756 mmHg 46%
    13:00 +28°C° 0 mm 2 m/S 756 mmHg 45%
    14:00 +28°C° 0 mm 2 m/S 755 mmHg 44%
    15:00 +28°C° 0 mm 2 m/S 754 mmHg 43%
    16:00 +27°C° 0 mm 2 m/S 755 mmHg 46%
    17:00 +25°C° 0 mm 2 m/S 755 mmHg 49%
    18:00 +24°C° 0 mm 2 m/S 755 mmHg 53%
    19:00 +23°C° 0 mm 2 m/S 755 mmHg 53%
    20:00 +23°C° 0 mm 2 m/S 756 mmHg 52%
    21:00 +21°C° 0 mm 2 m/S 757 mmHg 52%
    22:00 +21°C° 0 mm 2 m/S 757 mmHg 52%
    23:00 +20°C° 0 mm 2 m/S 757 mmHg 52%

    24 November, Freitag

    Zeit Temperatur Niederschläge Wind Luftdruck Luftfeuchtigkeit
    00:00 +20°C° 0 mm 2 m/S 757 mmHg 51%
    01:00 +19°C° 0 mm 2 m/S 756 mmHg 52%
    02:00 +19°C° 0 mm 2 m/S 756 mmHg 53%
    03:00 +18°C° 0 mm 2 m/S 756 mmHg 54%
    04:00 +18°C° 0 mm 2 m/S 756 mmHg 55%
    05:00 +18°C° 0 mm 2 m/S 756 mmHg 56%
    06:00 +18°C° 0 mm 1 m/S 757 mmHg 57%
    07:00 +19°C° 0 mm 2 m/S 757 mmHg 54%
    08:00 +20°C° 0 mm 2 m/S 758 mmHg 52%
    09:00 +23°C° 0 mm 2 m/S 758 mmHg 49%
    10:00 +24°C° 0 mm 2 m/S 758 mmHg 45%
    11:00 +26°C° 0 mm 2 m/S 757 mmHg 42%
    12:00 +27°C° 0 mm 2 m/S 757 mmHg 38%
    13:00 +28°C° 0 mm 2 m/S 756 mmHg 38%
    14:00 +28°C° 0 mm 2 m/S 756 mmHg 37%
    15:00 +28°C° 0 mm 2 m/S 755 mmHg 37%
    16:00 +27°C° 0 mm 2 m/S 755 mmHg 40%
    17:00 +25°C° 0 mm 2 m/S 755 mmHg 44%
    18:00 +24°C° 0 mm 2 m/S 755 mmHg 48%
    19:00 +23°C° 0 mm 2 m/S 756 mmHg 49%
    20:00 +21°C° 0 mm 2 m/S 756 mmHg 49%
    21:00 +21°C° 0 mm 2 m/S 757 mmHg 50%
    22:00 +20°C° 0 mm 2 m/S 757 mmHg 50%
    23:00 +20°C° 0 mm 2 m/S 757 mmHg 51%

    25 November, Samstag

    Zeit Temperatur Niederschläge Wind Luftdruck Luftfeuchtigkeit
    00:00 +19°C° 0 mm 2 m/S 757 mmHg 51%
    01:00 +19°C° 0 mm 2 m/S 757 mmHg 52%
    02:00 +18°C° 0 mm 2 m/S 756 mmHg 53%
    03:00 +18°C° 0 mm 2 m/S 756 mmHg 54%
    04:00 +18°C° 0 mm 2 m/S 757 mmHg 56%
    05:00 +17°C° 0 mm 2 m/S 757 mmHg 57%
    06:00 +17°C° 0 mm 2 m/S 757 mmHg 59%
    07:00 +19°C° 0 mm 2 m/S 758 mmHg 56%
    08:00 +20°C° 0 mm 2 m/S 758 mmHg 54%
    09:00 +23°C° 0 mm 2 m/S 759 mmHg 51%
    10:00 +24°C° 0 mm 2 m/S 759 mmHg 47%
    11:00 +26°C° 0 mm 2 m/S 758 mmHg 43%
    12:00 +27°C° 0 mm 3 m/S 758 mmHg 39%
    13:00 +28°C° 0 mm 2 m/S 757 mmHg 38%
    14:00 +28°C° 0 mm 2 m/S 757 mmHg 38%
    15:00 +28°C° 0 mm 2 m/S 756 mmHg 37%
    16:00 +27°C° 0 mm 2 m/S 756 mmHg 42%
    17:00 +25°C° 0 mm 2 m/S 757 mmHg 46%
    18:00 +23°C° 0 mm 1 m/S 757 mmHg 50%
    19:00 +23°C° 0 mm 1 m/S 757 mmHg 52%
    20:00 +22°C° 0 mm 1 m/S 758 mmHg 54%
    21:00 +22°C° 0 mm 1 m/S 758 mmHg 56%
    22:00 +21°C° 0 mm 1 m/S 758 mmHg 57%
    23:00 +21°C° 0 mm 1 m/S 758 mmHg 59%
    Mehr zeigen